This is the latest recevied weather packets stored in our database for station/object IQ5VK-13. If no packets are shown the sender has not sent any weather packets the latest 10 day(s).
| Time | Temp. | Humidity | Pressure | Rain* | Wind** | Luminosity | Snow |
|---|---|---|---|---|---|---|---|
| 1788241366 | 19.44° C | 78% | 1021.7 hPa | - | - | - | - |
| 1788240166 | 19.44° C | 79% | 1021.6 hPa | - | - | - | - |
| 1788238966 | 19.44° C | 80% | 1021.6 hPa | - | - | - | - |
| 1788237765 | 19.44° C | 81% | 1021.4 hPa | - | - | - | - |
| 1788235365 | 19.44° C | 79% | 1021.4 hPa | - | - | - | - |
| 1788234164 | 19.44° C | 79% | 1021.4 hPa | - | - | - | - |
| 1788232967 | 19.44° C | 79% | 1021.6 hPa | - | - | - | - |
| 1788231764 | 19.44° C | 80% | 1021.7 hPa | - | - | - | - |
| 1788230563 | 18.89° C | 80% | 1021.9 hPa | - | - | - | - |
| 1788229363 | 19.44° C | 79% | 1021.8 hPa | - | - | - | - |
| 1788228163 | 19.44° C | 78% | 1021.7 hPa | - | - | - | - |
| 1788226963 | 18.89° C | 77% | 1021.8 hPa | - | - | - | - |
| 1788225763 | 19.44° C | 76% | 1021.7 hPa | - | - | - | - |
| 1788224562 | 19.44° C | 75% | 1021.8 hPa | - | - | - | - |
| 1788223362 | 19.44° C | 74% | 1021.7 hPa | - | - | - | - |
| 1788222161 | 19.44° C | 73% | 1021.7 hPa | - | - | - | - |
| 1788219770 | 19.44° C | 70% | 1021.8 hPa | - | - | - | - |
| 1788218602 | 20° C | 71% | 1021.7 hPa | - | - | - | - |
| 1788218569 | 20° C | 71% | 1021.7 hPa | - | - | - | - |
| 1788217369 | 20° C | 72% | 1021.7 hPa | - | - | - | - |
| 1788216169 | 19.44° C | 78% | 1021.7 hPa | - | - | - | - |
| 1788214968 | 17.78° C | 86% | 1021.9 hPa | - | - | - | - |
| 1788213768 | 17.22° C | 89% | 1021.8 hPa | - | - | - | - |
| 1788212568 | 18.33° C | 91% | 1021.8 hPa | - | - | - | - |
| 1788211367 | 18.33° C | 92% | 1021.7 hPa | - | - | - | - |
* Rain since midnight (hover to see other rain measurements)
** Current wind speed in m/s (hover to see current wind gust speed)